Middlesboro, KY

2:56 AM CST on November 21, 2017 (GMT -0600)
Middlesboro

Weather History for K1A6 - December, 2012

Change the Weather History Date:

Saturday, December 29, 2012

  Actual Average (KLOZ) Record (KLOZ)
Temperature  
Mean Temperature 37 °F -  
Max Temperature 42 °F 45 °F 71 °F (1984)
Min Temperature 30 °F 26 °F 3 °F (1961)
Degree Days  
Heating Degree Days 28    
Moisture  
Dew Point 33 °F    
Average Humidity 88    
Maximum Humidity 100    
Minimum Humidity 75    
Precipitation  
Precipitation 0.04 in - - ()
Sea Level Pressure  
Sea Level Pressure 29.94 in    
Wind  
Wind Speed 4 mph (NW)    
Max Wind Speed 14 mph    
Max Gust Speed 22 mph    
Visibility 7 miles    
Events Rain , Snow    
Averages and records for this station are not official NWS values.
T = Trace of Precipitation, MM = Missing Value Source: NWS Daily Summary

Daily Weather History Graph

Daily Weather History Graph

Search for Another Location

Airport or City:

Trip Planner

Search our weather history database for the weather conditions in past years. The results will help you decide how hot, cold, wet, or windy it might be!

Date:

Astronomy

Dec. 29, 2012 Rise Set
Actual Time 6:46 AM CST 4:28 PM CST
Civil Twilight 6:17 AM CST 4:56 PM CST
Nautical Twilight 5:45 AM CST 5:29 PM CST
Astronomical Twilight 5:14 AM CST 6:00 PM CST
Moon 5:57 PM CST (12/29) 7:21 AM CST (12/29)
Length of Visible Light 10h 38m
Length of Day
9h 41m
Full, 98% of the Moon is Illuminated
Dec 29
Full
Jan 4
Last Quarter
Jan 11
New
Jan 18
First Quarter
Jan 26
Full

Hourly Weather History & Observations

Time (CST) Temp. Windchill Dew Point Humidity Pressure Visibility Wind Dir Wind Speed Gust Speed Precip Events Conditions
12:15 AM 39.2 °F - 39.2 °F 100% 29.71 in 10.0 mi Calm Calm - N/A Rain Light Rain
12:35 AM 39.2 °F 35.9 °F 39.2 °F 100% 29.71 in 7.0 mi NNW 4.6 mph - N/A   Overcast
12:55 AM 39.2 °F - 39.2 °F 100% 29.73 in 10.0 mi Calm Calm - N/A   Overcast
1:15 AM 39.2 °F - 39.2 °F 100% 29.74 in 3.0 mi Calm Calm - N/A Rain Rain
1:35 AM 39.2 °F 37.0 °F 37.4 °F 93% 29.74 in 5.0 mi East 3.5 mph - N/A Rain Rain
1:55 AM 39.2 °F 37.0 °F 37.4 °F 93% 29.74 in 5.0 mi NNE 3.5 mph - 0.01 in Rain Rain
2:15 AM 39.2 °F - 37.4 °F 93% 29.74 in 4.0 mi Calm Calm - 0.02 in Rain Heavy Rain
2:35 AM 39.2 °F - 37.4 °F 93% 29.75 in 2.5 mi Calm Calm - 0.02 in Rain Rain
2:55 AM 39.2 °F - 37.4 °F 93% 29.74 in 2.5 mi Calm Calm - N/A Rain Rain
3:15 AM 39.2 °F - 37.4 °F 93% 29.74 in 4.0 mi Calm Calm - 0.01 in Rain Light Rain
3:35 AM 39.2 °F - 37.4 °F 93% 29.73 in 3.0 mi Calm Calm - 0.01 in Rain Light Rain
3:55 AM 39.2 °F - 37.4 °F 93% 29.73 in 3.0 mi Calm Calm - N/A Rain Light Rain
4:15 AM 39.2 °F - 37.4 °F 93% 29.73 in 5.0 mi Calm Calm - N/A   Overcast
4:35 AM 39.2 °F - 39.2 °F 100% 29.73 in 4.0 mi Calm Calm - N/A   Overcast
4:55 AM 39.2 °F 37.0 °F 39.2 °F 100% 29.73 in 7.0 mi WSW 3.5 mph - N/A Rain Rain
5:15 AM 39.2 °F - 39.2 °F 100% 29.73 in 3.0 mi Calm Calm - N/A   Drizzle
5:35 AM 39.2 °F 37.0 °F 39.2 °F 100% 29.73 in 5.0 mi NNE 3.5 mph - N/A   Drizzle
5:55 AM 39.2 °F - 39.2 °F 100% 29.75 in 7.0 mi Calm Calm - N/A   Drizzle
6:15 AM 42.8 °F 39.3 °F 41.0 °F 93% 29.76 in 10.0 mi WSW 5.8 mph - N/A Rain Light Rain
6:35 AM 42.8 °F 41.1 °F 41.0 °F 93% 29.77 in 10.0 mi West 3.5 mph - N/A Rain Light Rain
6:55 AM 42.8 °F 37.5 °F 39.2 °F 87% 29.78 in 10.0 mi WNW 9.2 mph - N/A   Light Drizzle
7:15 AM 41.0 °F - 39.2 °F 93% 29.80 in 10.0 mi Calm Calm - N/A Rain Light Rain
8:15 AM 39.2 °F 35.0 °F 37.4 °F 93% 29.83 in 5.0 mi West 5.8 mph - N/A Rain Light Rain
8:35 AM 39.2 °F 33.0 °F 37.4 °F 93% 29.85 in 7.0 mi WNW 9.2 mph - N/A Rain Light Rain
8:55 AM 39.2 °F 32.5 °F 37.4 °F 93% 29.87 in 10.0 mi WNW 10.4 mph 16.1 mph N/A   Light Drizzle
9:15 AM 39.2 °F 34.2 °F 37.4 °F 93% 29.88 in 5.0 mi NNW 6.9 mph 17.3 mph N/A Rain Rain
9:35 AM 37.4 °F 31.4 °F 35.6 °F 93% 29.90 in 10.0 mi NNW 8.1 mph 18.4 mph N/A Rain Light Rain
9:55 AM 37.4 °F 32.1 °F 35.6 °F 93% 29.90 in 10.0 mi NNW 6.9 mph - N/A   Overcast
10:15 AM 37.4 °F 30.8 °F 33.8 °F 87% 29.91 in 10.0 mi WNW 9.2 mph - N/A   Overcast
10:35 AM 37.4 °F 33.8 °F 33.8 °F 87% 29.91 in 10.0 mi NW 4.6 mph - N/A   Overcast
10:55 AM 37.4 °F 31.4 °F 33.8 °F 87% 29.90 in 10.0 mi NW 8.1 mph - N/A   Overcast
11:15 AM 37.4 °F 31.4 °F 33.8 °F 87% 29.90 in 1.0 mi WNW 8.1 mph 16.1 mph N/A   Overcast
11:35 AM 37.4 °F 32.8 °F 33.8 °F 87% 29.90 in 10.0 mi NW 5.8 mph - N/A   Overcast
11:55 AM 37.4 °F 32.8 °F 33.8 °F 87% 29.90 in 10.0 mi NW 5.8 mph - N/A   Overcast
12:15 PM 37.4 °F 30.8 °F 33.8 °F 87% 29.90 in 7.0 mi NW 9.2 mph - N/A   Overcast
12:35 PM 37.4 °F 30.8 °F 33.8 °F 87% 29.91 in 10.0 mi NW 9.2 mph - N/A   Overcast
12:55 PM 37.4 °F 32.1 °F 33.8 °F 87% 29.92 in 10.0 mi NNW 6.9 mph - N/A   Overcast
1:15 PM 35.6 °F 28.0 °F 33.8 °F 93% 29.92 in 10.0 mi NNW 10.4 mph - N/A   Overcast
1:35 PM 35.6 °F 28.0 °F 33.8 °F 93% 29.93 in 7.0 mi NW 10.4 mph - N/A   Overcast
1:55 PM 35.6 °F 29.9 °F 32.0 °F 87% 29.94 in 7.0 mi WNW 6.9 mph - N/A   Overcast
2:15 PM 35.6 °F 28.6 °F 32.0 °F 87% 29.96 in 7.0 mi WNW 9.2 mph 16.1 mph N/A   Overcast
2:35 PM 35.6 °F 31.7 °F 32.0 °F 87% 29.96 in 7.0 mi NW 4.6 mph - N/A   Overcast
2:55 PM 35.6 °F 29.2 °F 30.2 °F 81% 29.98 in 7.0 mi WNW 8.1 mph - N/A   Overcast
3:15 PM 35.6 °F 31.7 °F 30.2 °F 81% 29.99 in 5.0 mi NW 4.6 mph - N/A Snow Light Snow
3:35 PM 35.6 °F 28.6 °F 30.2 °F 81% 30.00 in 7.0 mi WNW 9.2 mph - N/A   Overcast
3:55 PM 35.6 °F 28.6 °F 30.2 °F 81% 30.01 in 7.0 mi NW 9.2 mph - N/A   Overcast
4:15 PM 35.6 °F 29.2 °F 30.2 °F 81% 30.02 in 5.0 mi NW 8.1 mph 16.1 mph N/A Snow Light Snow
4:35 PM 35.6 °F 27.1 °F 30.2 °F 81% 30.03 in 7.0 mi NW 12.7 mph - N/A Snow Light Snow
4:55 PM 35.6 °F 28.6 °F 30.2 °F 81% 30.04 in 7.0 mi NW 9.2 mph - N/A Snow Light Snow
5:15 PM 33.8 °F 26.4 °F 30.2 °F 87% 30.05 in 5.0 mi NNW 9.2 mph 18.4 mph N/A Snow Light Snow
5:35 PM 33.8 °F 28.6 °F 30.2 °F 87% 30.07 in 5.0 mi NW 5.8 mph - N/A Snow Light Snow
5:55 PM 33.8 °F 24.8 °F 28.4 °F 81% 30.08 in 7.0 mi NW 12.7 mph 16.1 mph N/A Snow Light Snow
6:15 PM 33.8 °F 26.4 °F 28.4 °F 81% 30.09 in 10.0 mi NW 9.2 mph 17.3 mph N/A   Overcast
6:35 PM 33.8 °F 25.8 °F 28.4 °F 81% 30.09 in 10.0 mi NW 10.4 mph 18.4 mph N/A   Overcast
6:55 PM 33.8 °F 27.0 °F 28.4 °F 81% 30.10 in 5.0 mi NW 8.1 mph - N/A Snow Light Snow
7:15 PM 33.8 °F 25.3 °F 28.4 °F 81% 30.11 in 10.0 mi WNW 11.5 mph 18.4 mph N/A Snow Light Snow
7:35 PM 33.8 °F 27.7 °F 28.4 °F 81% 30.12 in 10.0 mi NW 6.9 mph 19.6 mph N/A   Overcast
7:55 PM 33.8 °F 28.6 °F 28.4 °F 81% 30.13 in 10.0 mi WNW 5.8 mph - N/A   Overcast
8:15 PM 33.8 °F 26.4 °F 26.6 °F 75% 30.14 in 10.0 mi WNW 9.2 mph - N/A   Overcast
8:35 PM 33.8 °F 27.0 °F 26.6 °F 75% 30.14 in 10.0 mi NNW 8.1 mph - N/A   Overcast
8:55 PM 32.0 °F - 28.4 °F 87% 30.16 in 3.0 mi Calm Calm - N/A Snow Light Snow
9:15 PM 33.8 °F 27.7 °F 26.6 °F 75% 30.17 in 7.0 mi NW 6.9 mph - N/A Snow Light Snow
9:35 PM 33.8 °F 28.6 °F 26.6 °F 75% 30.18 in 7.0 mi NNW 5.8 mph 18.4 mph N/A Snow Light Snow
9:55 PM 32.0 °F 25.6 °F 26.6 °F 80% 30.19 in 10.0 mi NW 6.9 mph 18.4 mph N/A Snow Light Snow
10:15 PM 32.0 °F 26.4 °F 26.6 °F 80% 30.19 in 10.0 mi WNW 5.8 mph 16.1 mph N/A Snow Light Snow
10:35 PM 32.0 °F 23.6 °F 26.6 °F 80% 30.21 in 7.0 mi NW 10.4 mph 17.3 mph N/A Snow Light Snow
10:55 PM 32.0 °F 23.0 °F 24.8 °F 75% 30.22 in 7.0 mi NW 11.5 mph 19.6 mph N/A Snow Light Snow
11:15 PM 32.0 °F 22.1 °F 26.6 °F 80% 30.22 in 10.0 mi NNW 13.8 mph 21.9 mph N/A   Overcast
11:35 PM 32.0 °F 26.4 °F 26.6 °F 80% 30.22 in 10.0 mi NNW 5.8 mph - N/A   Overcast
11:55 PM 30.2 °F 22.6 °F 26.6 °F 86% 30.23 in 10.0 mi NW 8.1 mph - N/A   Overcast